This demonstration page uses our WeatherBlox Daily Observations layout. Learn more.

Left ArrowRight Arrow

Hourly Observations for November 27, 2022

Temp ( °F °C ) Dew Point ( °F °C ) Humidity (%) Winds ( mph kmh ) Pressure ( in mb ) Visibility ( mi km ) Precip ( " mm )
12:59 am 00:59 Cloudy 48 8.9 38 3.3 68 68 S 7 11 30.09 1019 10 16 0.00 0.00
1:59 am 01:59 Cloudy 48 8.9 39 3.9 71 71 S 8 13 30.07 1018 10 16 0.00 0.00
2:59 am 02:59 Cloudy 48 8.9 40 4.4 73 73 S 7 11 30.04 1017 10 16 0.00 0.00
3:59 am 03:59 Cloudy 49 9.4 40 4.4 71 71 S 7 11 30.03 1017 10 16 0.00 0.00
4:59 am 04:59 Cloudy 49 9.4 40 4.4 71 71 S 8 13 30.01 1016 10 16 0.00 0.00
5:59 am 05:59 Cloudy 49 9.4 41 5 74 74 S 7 11 29.99 1016 10 16 0.00 0.00
6:59 am 06:59 Cloudy 51 10.6 41 5 68 68 S 7 11 29.97 1015 10 16 0.00 0.00
7:59 am 07:59 Cloudy 53 11.7 43 6.1 68 68 S 8 13 29.95 1014 10 16 0.00 0.00
8:59 am 08:59 Cloudy 56 13.3 47 8.3 72 72 SSE 7 11 29.93 1014 10 16 0.00 0.00
9:29 am 09:29 Cloudy with Light Rain 56 13.3 50 10 80 80 SSE 7 11 29.93 1014 9 14 0.01 0.13
9:59 am 09:59 Cloudy with Light Rain 56 13.3 53 11.7 90 90 S 7 11 29.89 1012 6 10 0.02 0.51
10:59 am 10:59 Cloudy with Light Rain 59 15 57 13.9 93 93 S 12 19 29.85 1011 7 11 0.02 0.51
11:42 am 11:42 Cloudy with Rain 59 15 58 14.4 96 96 S 10 17 29.82 1010 2 3 0.07 1.78
11:59 am 11:59 Cloudy with Light Rain 60 15.6 59 15 96 96 S 12 19 29.79 1009 3 4 0.11 2.79
12:11 pm 12:11 Cloudy with Mist and Fog 60 15.6 59 15 96 96 S 12 19 29.77 1008 5 8 0.01 0.13
12:59 pm 12:59 Cloudy 63 17.2 61 16.1 93 93 S 12 19 29.70 1006 10 16 0.01 0.25
1:59 pm 13:59 Cloudy 66 18.9 63 17.2 90 90 S 10 17 29.65 1004 10 16 0.00 0.00
2:22 pm 14:22 Cloudy with Light Rain 67 19.4 64 17.8 90 90 S 14 22 29.63 1003 7 11 0.01 0.13
2:59 pm 14:59 Cloudy with Light Rain 68 20 65 18.3 90 90 S 15 24 29.60 1002 9 14 0.01 0.13
3:11 pm 15:11 Cloudy 68 20 65 18.3 90 90 S 16 26 29.60 1002 10 16 0.01 0.13
3:59 pm 15:59 Cloudy 69 20.6 66 18.9 90 90 S 17 28 29.55 1001 10 16 0.01 0.13
4:37 pm 16:37 Cloudy 70 21.1 67 19.4 90 90 S 14 22 29.55 1001 10 16 0.00 0.00
4:59 pm 16:59 Cloudy with Light Rain 70 21.1 67 19.4 90 90 SSW 12 19 29.55 1001 6 10 0.01 0.13
5:21 pm 17:21 Mostly Cloudy 70 21.1 67 19.4 90 90 S 12 19 29.55 1001 10 16 0.01 0.13
5:59 pm 17:59 Partly Cloudy 70 21.1 67 19.4 90 90 SSW 9 15 29.55 1001 10 16 0.01 0.13
6:59 pm 18:59 Mostly Cloudy 70 21.1 68 20 93 93 SSW 9 15 29.56 1001 10 16 0.00 0.00
7:59 pm 19:59 Partly Cloudy 69 20.6 67 19.4 93 93 SW 10 17 29.56 1001 10 16 0.00 0.00
8:59 pm 20:59 Partly Cloudy 68 20 65 18.3 90 90 SW 12 19 29.58 1002 10 16 0.00 0.00
9:59 pm 21:59 Mostly Clear 70 21.1 60 15.6 71 71 WSW 12 19 29.59 1002 10 16 0.00 0.00
10:59 pm 22:59 Clear 68 20 58 14.4 70 70 SW 10 17 29.61 1003 10 16 0.00 0.00
11:59 pm 23:59 Clear 66 18.9 55 12.8 68 68 WSW 15 24 29.62 1003 10 16 0.00 0.00

Powered by AerisWeather